Location: Hamilton
(37.7830°S, 175.2830°E)
Time: 12:38:24
(UTC+13:00)

Cosmos 2322 Rocket - Pass Details

Date: 24 January 2019
Orbit: 834 x 849 km, 71.0° (Epoch: 21 February)

Event Time Altitude Azimuth Distance (km) Brightness Sun altitude
Rises 21:12:28 0° 2° (N) 3,379 5.0 -6.8°
Reaches altitude 10° 21:15:03 10° 9° (N) 2,456 4.2 -7.2°
Maximum altitude 21:20:12 38° 76° (ENE) 1,279 2.7 -8.1°
Drops below altitude 10° 21:25:26 10° 141° (SE) 2,494 4.6 -9.0°
Sets 21:28:03 0° 149° (SSE) 3,439 5.4 -9.4°
